Epoch 2005 July 9.0 TT = JDT 2453560.5
T 2005 June 20.10761 TT MPCW
q 2.2762877 (2000.0) P Q
n 0.15070323 Peri. 153.56275 -0.70999469 +0.68902712
a 3.4972043 Node 70.79322 -0.67030062 -0.59793355
e 0.3491122 Incl. 8.85878 -0.21588104 -0.40953278
P 6.54
From 33 observations 2005 Apr. 4-2018 Mar. 21, mean residual 0".4.
Finding Charts
Magnitudes Graph
m1 = 14.0 + 5 log d + 10.0 log r
The orbital elements are published on M.P.E.C. 2018-F85.
The charts are made with StellaNavigator Ver.2.0 for Windows
(AstroArts / ASCII).
The magnitudes graphs are made with Comet for Windows.
Copyright(C) Seiichi Yoshida (comet@aerith.net). All rights reserved.